Terminal Aerodrome Forecast
Issued by NWS Denver/Boulder, CO

Home | Current Version | Previous Version | Text Only | Print | Product List | Glossary On
Versions: 1 2 3 4 5 6 7 8 9 10 11 12 13 14 15 16 17 18 19 20 21 22 23 24 25 26 27 28 29 30 31 32 33 34 35 36 37 38 39 40 41 42 43 44 45 46 47 48 49 50
000
FTUS45 KBOU 250651 AAA
TAFDEN
TAF AMD
KDEN 250651Z 2507/2612 07010KT P6SM FEW070 BKN100
     FM250800 15009KT P6SM SCT100 SCT220
     FM251100 22010KT P6SM FEW220
     FM251700 26008KT P6SM FEW140 SCT220
     FM252000 32011G18KT P6SM FEW080 SCT120 BKN200
     FM260200 23008KT P6SM SCT080 BKN110=

USA.gov is the U.S. government's official web portal to all federal, state and local government web resources and services.